Overview Statistics Trail Chart Weather Telemetry Raw packets
 

This is the latest recevied weather packets stored in our database for station/object N9BLE. If no packets are shown the sender has not sent any weather packets the latest 10 day(s).

<< 55 56 57 58 59 60 61 >>
Time Temp. Humidity Pressure Rain* Wind** Luminosity Snow
1777673594 9.44° C 59% 1020.9 hPa 0 mm - 186 W/m² -
1777673293 8.89° C 58% 1021 hPa 0 mm - 125 W/m² -
1777672989 8.89° C 58% 1020.9 hPa 0 mm - 62 W/m² -
1777672686 8.89° C 58% 1020.9 hPa 0 mm - 53 W/m² -
1777672381 8.89° C 57% 1020.8 hPa 0 mm - 47 W/m² -
1777672077 9.44° C 56% 1021.1 hPa 0 mm - 52 W/m² -
1777671773 9.44° C 53% 1021.1 hPa 0 mm - 86 W/m² -
1777671469 10° C 52% 1021 hPa 0 mm - 109 W/m² -
1777671166 10° C 55% 1020.9 hPa 0 mm - 147 W/m² -
1777670862 10° C 53% 1020.8 hPa 0 mm - 196 W/m² -
1777670558 9.44° C 51% 1020.9 hPa 0 mm - 211 W/m² -
1777670256 10° C 51% 1020.9 hPa 0 mm - 212 W/m² -
1777669952 10° C 51% 1020.8 hPa 0 mm - 232 W/m² -
1777669650 10° C 52% 1020.9 hPa 0 mm - 257 W/m² -
1777669346 9.44° C 52% 1021 hPa 0 mm - 274 W/m² -
1777669043 9.44° C 51% 1021 hPa 0 mm - 220 W/m² -
1777668740 10° C 55% 1021 hPa 0 mm - 177 W/m² -
1777668437 9.44° C 53% 1021 hPa 0 mm - 196 W/m² -
1777668134 9.44° C 54% 1021 hPa 0 mm - 197 W/m² -
1777667829 9.44° C 52% 1021 hPa 0 mm - 214 W/m² -
1777667527 9.44° C 56% 1021.1 hPa 0 mm - 189 W/m² -
1777667224 9.44° C 55% 1021 hPa 0 mm - 148 W/m² -
1777666921 8.89° C 55% 1021.2 hPa 0 mm - 153 W/m² -
1777666617 8.89° C 56% 1021.2 hPa 0 mm - 124 W/m² -
1777666314 8.89° C 56% 1021.1 hPa 0 mm - 90 W/m² -

* Rain latest hour (hover to see other rain measurements)
** Current wind speed in m/s (hover to see current wind gust speed)